This is the latest recevied weather packets stored in our database for station/object WD4ITN. If no packets are shown the sender has not sent any weather packets the latest 10 day(s).
| Time | Temp. | Humidity | Pressure | Rain* | Wind** | Luminosity | Snow |
|---|---|---|---|---|---|---|---|
| 1787864909 | 20.56° C | 91% | 1015.6 hPa | 0.76 mm | - | - | - |
| 1787864612 | 20.56° C | 90% | 1015.8 hPa | 0.76 mm | - | - | - |
| 1787864308 | 20.56° C | 89% | 1016 hPa | 0.76 mm | - | - | - |
| 1787864003 | 20° C | 90% | 1015.9 hPa | 0.76 mm | - | - | - |
| 1787863699 | 20° C | 92% | 1015.8 hPa | 0.76 mm | - | - | - |
| 1787863401 | 19.44° C | 91% | 1015.9 hPa | 0.76 mm | - | - | - |
| 1787863099 | 19.44° C | 91% | 1016 hPa | 0.51 mm | - | - | - |
| 1787862815 | 19.44° C | 91% | 1016.1 hPa | 0.25 mm | - | - | - |
| 1787862516 | 20° C | 88% | 1016.2 hPa | 0.25 mm | - | - | - |
| 1787862204 | 20.56° C | 88% | 1016.4 hPa | 0.25 mm | - | - | - |
| 1787861895 | 20.56° C | 85% | 1016.2 hPa | 0.25 mm | - | - | - |
| 1787861607 | 21.11° C | 83% | 1016.2 hPa | 0.25 mm | - | - | - |
| 1787861301 | 22.22° C | 82% | 1016.2 hPa | 0 mm | - | - | - |
| 1787860998 | 23.33° C | 82% | 1015.9 hPa | 0 mm | - | - | - |
| 1787860695 | 23.89° C | 78% | 1015.6 hPa | 0 mm | - | - | - |
| 1787860410 | 24.44° C | 80% | 1015.6 hPa | 0 mm | - | - | - |
| 1787860112 | 25° C | 78% | 1015.3 hPa | 0 mm | - | - | - |
| 1787859803 | 25.56° C | 75% | 1015.5 hPa | 0 mm | - | - | - |
| 1787859498 | 25.56° C | 74% | 1015.7 hPa | 0 mm | - | - | - |
| 1787859195 | 25.56° C | 75% | 1015.6 hPa | 0 mm | - | - | - |
| 1787858912 | 26.11° C | 74% | 1015.2 hPa | 0 mm | - | - | - |
| 1787858609 | 26.11° C | 73% | 1015.5 hPa | 0 mm | - | - | - |
| 1787857994 | 26.11° C | 71% | 1015.8 hPa | 0 mm | - | - | - |
| 1787857713 | 26.67° C | 71% | 1015.9 hPa | 0 mm | - | - | - |
| 1787857396 | 26.67° C | 69% | 1015.8 hPa | 0 mm | - | - | - |
* Rain since midnight (hover to see other rain measurements)
** Current wind speed in m/s (hover to see current wind gust speed)